Flag for India Weather past 2 weeks in Mumbai, Maharashtra, India

Now
77 °F

Clear.


Feels Like: 79 °F
Forecast: 80 / 90 °F
Wind: 5 mph from Southeast

Location: Bombay / Santacruz

Current Time: Apr 1, 2015 at 10:13:55 AM

Latest Report: Apr 1, 2015 at 6:40 AM


Visibility: 2 mi

Pressure: 29.83 "Hg

Humidity: 61%

Dew point: 63 °F

Location of MumbaiLocation

Historic Weather in Mumbai — Graph

°F

Mumbai temperature yesterday

Maximum temperature yesterday: 95 °F (at 1:40 PM)
Minimum temperature yesterday: 81 °F (at 4:40 AM)
Average temperature yesterday: 87 °F

Past Weeks' High & Low Weather Summary

 TemperatureHumidityPressure
High104 °F (Mar 25, 1:40 PM)94% (Mar 22, 2:40 AM)30.04 "Hg (Mar 22, 2:40 AM)
Low73 °F (Mar 17, 6:40 AM)10% (Mar 31, 2:40 PM)29.71 "Hg (Mar 25, 3:40 PM)
Average86 °F58%29.85 "Hg
* Reported Mar 17 6:40 AM — Apr 1 6:40 AM, Mumbai, Weather by CustomWeather, © 2015

Note: Actual official high and low records may vary slightly from our data, if they occured in-between our weather recording intervals... More about our weather records

Advertising

Mumbai weather history for previous 24 hours

 ConditionsComfort  
Time TempWeatherWind HumidityBarometerVisibility
6:40 AM
Wed, Apr 1
77 °FClear.5 mph61%29.83 "Hg2 mi
5:40 AM77 °FClear.No wind61%29.83 "Hg2 mi
4:40 AM79 °FClear.No wind58%29.80 "Hg2 mi
3:40 AM79 °FClear.3 mph51%29.80 "Hg2 mi
2:40 AM81 °FClear.No wind17%29.83 "Hg2 mi
1:40 AM81 °FClear.No wind18%29.83 "Hg2 mi
12:40 AM81 °FClear.No wind18%29.86 "Hg2 mi
11:40 PM
Tue, Mar 31
82 °FClear.5 mph19%29.86 "Hg2 mi
10:40 PM84 °FClear.5 mph18%29.86 "Hg2 mi
9:40 PM84 °FClear.No wind18%29.86 "Hg2 mi
8:40 PM84 °FClear.No wind19%29.86 "Hg2 mi
6:40 PM90 °FPassing clouds.8 mph16%29.83 "Hg4 mi
5:40 PM93 °FPassing clouds.8 mph15%29.80 "Hg4 mi
4:40 PM95 °FPassing clouds.12 mph15%29.80 "Hg4 mi
3:40 PM91 °FPassing clouds.9 mph11%29.80 "Hg4 mi
2:40 PM91 °FClear.12 mph10%29.83 "Hg4 mi
1:40 PM95 °FClear.12 mph16%29.86 "Hg3 mi
11:40 AM93 °FClear.6 mph53%29.89 "Hg2 mi
10:40 AM91 °FClear.10 mph56%29.92 "Hg2 mi
Weather by CustomWeather, © 2015

See weather overviewHow to use our weather pages